GLD1974 SBMQ-SMJP

Flight info

Callsign GLD1974
Flight time 1h 6m
Altitude 36000
Route MUPAT UZ41 OTONI UG449 VILAS
Aircraft A319/M-SDE3FGHIRWY/LB1

Departure

Time 2026-05-05 08:28
Airport Macapá - Alberto Alcolumbre International Airport (SBMQ)

Arrival

Time 2026-05-05 09:35
Airport Johan Adolf Pengel International Airport (SMJP)
Time Latitude Longitude Altitude Speed Heading
2026-05-05 08:10 0.05094 -51.06723 61 ft 0 kts 25°
2026-05-05 08:19 0.05081 -51.06729 57 ft 2 kts 23°
2026-05-05 08:20 0.05073 -51.06742 58 ft 2 kts 143°
2026-05-05 08:20 0.05086 -51.06751 61 ft 2 kts 146°
2026-05-05 08:20 0.05100 -51.06760 60 ft 2 kts 146°
2026-05-05 08:20 0.05115 -51.06765 57 ft 2 kts 197°
2026-05-05 08:21 0.05128 -51.06757 59 ft 2 kts 227°
2026-05-05 08:21 0.05138 -51.06746 62 ft 0 kts 237°
2026-05-05 08:23 0.05131 -51.06757 60 ft 3 kts 237°
2026-05-05 08:23 0.05114 -51.06783 60 ft 6 kts 237°
2026-05-05 08:23 0.05103 -51.06827 64 ft 7 kts 291°
2026-05-05 08:23 0.05143 -51.06869 65 ft 8 kts 292°
2026-05-05 08:24 0.05117 -51.06929 65 ft 11 kts 238°
2026-05-05 08:24 0.05072 -51.06998 60 ft 13 kts 236°
2026-05-05 08:24 0.05056 -51.07079 62 ft 12 kts 309°
2026-05-05 08:24 0.05104 -51.07138 66 ft 12 kts 268°
2026-05-05 08:25 0.05055 -51.07228 67 ft 17 kts 237°
2026-05-05 08:25 0.04992 -51.07325 63 ft 17 kts 237°
2026-05-05 08:25 0.04928 -51.07424 66 ft 18 kts 237°
2026-05-05 08:25 0.04859 -51.07530 65 ft 19 kts 237°
2026-05-05 08:26 0.04788 -51.07638 60 ft 19 kts 237°
2026-05-05 08:26 0.04718 -51.07745 65 ft 19 kts 237°
2026-05-05 08:26 0.04646 -51.07857 64 ft 19 kts 238°
2026-05-05 08:26 0.04570 -51.07951 64 ft 15 kts 205°
2026-05-05 08:27 0.04549 -51.07990 67 ft 4 kts 347°
2026-05-05 08:27 0.04573 -51.07968 66 ft 6 kts 56°
2026-05-05 08:27 0.04581 -51.07957 65 ft 0 kts 56°
2026-05-05 08:27 0.04583 -51.07954 65 ft 3 kts 56°
2026-05-05 08:28 0.04703 -51.07770 61 ft 70 kts 57°
2026-05-05 08:28 0.05096 -51.07164 65 ft 134 kts 57°
2026-05-05 08:28 0.05656 -51.06290 385 ft 154 kts 57°
2026-05-05 08:28 0.06235 -51.05376 970 ft 157 kts 57°
2026-05-05 08:29 0.06826 -51.04465 1662 ft 155 kts 57°
2026-05-05 08:29 0.07671 -51.03749 2101 ft 175 kts 21°
2026-05-05 08:29 0.08971 -51.03602 2391 ft 200 kts
2026-05-05 08:30 0.12108 -51.03308 3102 ft 251 kts
2026-05-05 08:30 0.13882 -51.03119 3737 ft 264 kts
2026-05-05 08:30 0.15728 -51.02924 4595 ft 269 kts
2026-05-05 08:30 0.17605 -51.02728 5448 ft 274 kts
2026-05-05 08:31 0.19519 -51.02524 6300 ft 278 kts
2026-05-05 08:31 0.21450 -51.02317 7118 ft 281 kts
2026-05-05 08:31 0.23406 -51.02106 7934 ft 284 kts
2026-05-05 08:31 0.25380 -51.01892 8750 ft 287 kts
2026-05-05 08:32 0.27377 -51.01676 9566 ft 290 kts
2026-05-05 08:32 0.29401 -51.01456 10202 ft 299 kts
2026-05-05 08:32 0.31556 -51.01217 10424 ft 322 kts
2026-05-05 08:32 0.33828 -51.00968 10902 ft 333 kts
2026-05-05 08:33 0.36146 -51.00721 11552 ft 337 kts
2026-05-05 08:33 0.38501 -51.00474 12227 ft 341 kts
2026-05-05 08:33 0.40877 -51.00223 12894 ft 345 kts
2026-05-05 08:33 0.43277 -50.99968 13558 ft 349 kts
2026-05-05 08:34 0.45704 -50.99709 14150 ft 352 kts
2026-05-05 08:34 0.48155 -50.99448 14718 ft 356 kts
2026-05-05 08:34 0.50628 -50.99182 15274 ft 359 kts
2026-05-05 08:34 0.53127 -50.98914 15829 ft 363 kts
2026-05-05 08:35 0.55646 -50.98642 16373 ft 366 kts
2026-05-05 08:35 0.58192 -50.98366 16913 ft 370 kts
2026-05-05 08:35 0.60760 -50.98090 17453 ft 373 kts
2026-05-05 08:35 0.63349 -50.97811 17995 ft 376 kts
2026-05-05 08:36 0.65929 -50.97531 18486 ft 379 kts
2026-05-05 08:36 0.68561 -50.97247 18939 ft 382 kts
2026-05-05 08:36 0.71226 -50.97012 19385 ft 387 kts
2026-05-05 08:36 0.73924 -50.97247 19827 ft 393 kts 350°
2026-05-05 08:37 0.76551 -50.98055 20270 ft 399 kts 338°
2026-05-05 08:37 0.78204 -50.98908 20574 ft 402 kts 329°
2026-05-05 08:37 0.80468 -51.00583 21023 ft 407 kts 322°
2026-05-05 08:37 0.82677 -51.02364 21475 ft 410 kts 322°
2026-05-05 08:38 0.84902 -51.04157 21920 ft 413 kts 322°
2026-05-05 08:38 0.87147 -51.05960 22366 ft 416 kts 322°
2026-05-05 08:38 0.89411 -51.07773 22812 ft 419 kts 322°
2026-05-05 08:38 0.91696 -51.09598 23247 ft 422 kts 322°
2026-05-05 08:39 0.93995 -51.11436 23646 ft 425 kts 322°
2026-05-05 08:39 0.96306 -51.13289 23992 ft 427 kts 322°
2026-05-05 08:39 0.98631 -51.15154 24345 ft 430 kts 322°
2026-05-05 08:39 1.00969 -51.17028 24706 ft 432 kts 322°
2026-05-05 08:40 1.03319 -51.18907 25046 ft 434 kts 322°
2026-05-05 08:40 1.05682 -51.20797 25388 ft 436 kts 322°
2026-05-05 08:40 1.08050 -51.22697 25723 ft 438 kts 321°
2026-05-05 08:40 1.10432 -51.24616 26065 ft 440 kts 321°
2026-05-05 08:41 1.12823 -51.26541 26398 ft 442 kts 321°
2026-05-05 08:41 1.15227 -51.28470 26728 ft 444 kts 321°
2026-05-05 08:41 1.17641 -51.30406 27045 ft 446 kts 321°
2026-05-05 08:41 1.20071 -51.32355 27363 ft 448 kts 321°
2026-05-05 08:42 1.22514 -51.34312 27666 ft 451 kts 321°
2026-05-05 08:42 1.24935 -51.36253 27970 ft 452 kts 321°
2026-05-05 08:42 1.27426 -51.38254 28279 ft 454 kts 321°
2026-05-05 08:42 1.29866 -51.40214 28573 ft 457 kts 321°
2026-05-05 08:43 1.32347 -51.42206 28871 ft 459 kts 321°
2026-05-05 08:43 1.34841 -51.44208 29165 ft 461 kts 321°
2026-05-05 08:43 1.37341 -51.46214 29451 ft 463 kts 321°
2026-05-05 08:43 1.39857 -51.48231 29732 ft 465 kts 321°
2026-05-05 08:44 1.42384 -51.50258 30010 ft 467 kts 321°
2026-05-05 08:44 1.44923 -51.52292 30249 ft 469 kts 321°
2026-05-05 08:44 1.47473 -51.54338 30483 ft 470 kts 321°
2026-05-05 08:44 1.50033 -51.56394 30715 ft 472 kts 321°
2026-05-05 08:45 1.52597 -51.58450 30935 ft 473 kts 321°
2026-05-05 08:45 1.55171 -51.60513 31167 ft 475 kts 321°
2026-05-05 08:45 1.57754 -51.62580 31401 ft 476 kts 321°
2026-05-05 08:45 1.60340 -51.64656 31638 ft 477 kts 321°
2026-05-05 08:46 1.62932 -51.66738 31972 ft 476 kts 321°
2026-05-05 08:46 1.65507 -51.68808 32302 ft 475 kts 321°
2026-05-05 08:46 1.68080 -51.70876 32634 ft 474 kts 321°
2026-05-05 08:46 1.70655 -51.72942 32967 ft 473 kts 321°
2026-05-05 08:47 1.73222 -51.75004 33311 ft 472 kts 321°
2026-05-05 08:47 1.75782 -51.77060 33654 ft 472 kts 322°
2026-05-05 08:47 1.78305 -51.79083 33993 ft 471 kts 322°
2026-05-05 08:47 1.80862 -51.81134 34286 ft 470 kts 321°
2026-05-05 08:48 1.83408 -51.83181 34566 ft 470 kts 321°
2026-05-05 08:48 1.85950 -51.85227 34830 ft 469 kts 321°
2026-05-05 08:48 1.88490 -51.87270 35102 ft 468 kts 321°
2026-05-05 08:48 1.91032 -51.89311 35367 ft 468 kts 321°
2026-05-05 08:49 1.93565 -51.91342 35643 ft 467 kts 322°
2026-05-05 08:49 1.96105 -51.93378 35890 ft 467 kts 322°
2026-05-05 08:49 1.98635 -51.95404 35973 ft 464 kts 322°
2026-05-05 08:50 2.03640 -51.99417 35984 ft 459 kts 321°
2026-05-05 08:50 2.08617 -52.03421 35985 ft 458 kts 321°
2026-05-05 08:51 2.13580 -52.07419 35987 ft 457 kts 321°
2026-05-05 08:51 2.18536 -52.11400 35989 ft 457 kts 321°
2026-05-05 08:52 2.23493 -52.15379 35988 ft 457 kts 321°
2026-05-05 08:52 2.28451 -52.19362 35990 ft 457 kts 322°
2026-05-05 08:53 2.33387 -52.23321 35994 ft 457 kts 321°
2026-05-05 08:53 2.38347 -52.27301 35995 ft 457 kts 322°
2026-05-05 08:54 2.43299 -52.31286 36001 ft 457 kts 321°
2026-05-05 08:54 2.48247 -52.35270 36007 ft 456 kts 321°
2026-05-05 08:55 2.53193 -52.39239 36004 ft 455 kts 321°
2026-05-05 08:55 2.58127 -52.43205 36005 ft 454 kts 321°
2026-05-05 08:56 2.63058 -52.47173 35998 ft 454 kts 321°
2026-05-05 08:56 2.67888 -52.51247 35997 ft 454 kts 316°
2026-05-05 08:57 2.72437 -52.55627 35999 ft 454 kts 316°
2026-05-05 08:57 2.76991 -52.60018 35993 ft 454 kts 316°
2026-05-05 08:58 2.81540 -52.64406 35991 ft 454 kts 316°
2026-05-05 08:58 2.86095 -52.68793 35994 ft 454 kts 316°
2026-05-05 08:59 2.90652 -52.73178 35996 ft 455 kts 316°
2026-05-05 08:59 2.95204 -52.77571 36002 ft 455 kts 316°
2026-05-05 09:00 2.99767 -52.81968 36000 ft 456 kts 316°
2026-05-05 09:00 3.04332 -52.86372 36008 ft 456 kts 315°
2026-05-05 09:01 3.08873 -52.90757 36009 ft 456 kts 315°
2026-05-05 09:01 3.13455 -52.95164 36009 ft 456 kts 316°
2026-05-05 09:02 3.18028 -52.99566 36008 ft 456 kts 315°
2026-05-05 09:02 3.22606 -53.03981 36009 ft 456 kts 316°
2026-05-05 09:03 3.27175 -53.08379 36009 ft 455 kts 316°
2026-05-05 09:03 3.31733 -53.12775 36010 ft 455 kts 315°
2026-05-05 09:04 3.36288 -53.17175 36009 ft 455 kts 315°
2026-05-05 09:04 3.40841 -53.21578 36012 ft 455 kts 315°
2026-05-05 09:05 3.45397 -53.25974 36012 ft 455 kts 315°
2026-05-05 09:05 3.49954 -53.30367 36015 ft 454 kts 315°
2026-05-05 09:06 3.54495 -53.34753 36017 ft 453 kts 315°
2026-05-05 09:06 3.59037 -53.39138 36014 ft 453 kts 315°
2026-05-05 09:07 3.63573 -53.43511 36013 ft 452 kts 315°
2026-05-05 09:07 3.68103 -53.47882 36013 ft 452 kts 315°
2026-05-05 09:08 3.72624 -53.52255 36015 ft 452 kts 315°
2026-05-05 09:08 3.77141 -53.56621 36013 ft 451 kts 315°
2026-05-05 09:09 3.81656 -53.60990 36012 ft 451 kts 315°
2026-05-05 09:09 3.86137 -53.65331 36013 ft 451 kts 315°
2026-05-05 09:10 3.90655 -53.69696 36011 ft 451 kts 315°
2026-05-05 09:10 3.95174 -53.74064 36010 ft 451 kts 315°
2026-05-05 09:11 3.99678 -53.78427 36011 ft 450 kts 315°
2026-05-05 09:11 4.04178 -53.82788 36017 ft 450 kts 315°
2026-05-05 09:12 4.08677 -53.87135 35929 ft 450 kts 315°
2026-05-05 09:12 4.10922 -53.89306 35685 ft 448 kts 315°
2026-05-05 09:12 4.13165 -53.91478 35449 ft 448 kts 315°
2026-05-05 09:12 4.15417 -53.93654 35215 ft 449 kts 315°
2026-05-05 09:13 4.17664 -53.95821 34877 ft 447 kts 315°
2026-05-05 09:13 4.19899 -53.97975 34345 ft 445 kts 315°
2026-05-05 09:13 4.22124 -54.00126 33787 ft 444 kts 315°
2026-05-05 09:13 4.24340 -54.02277 33245 ft 441 kts 315°
2026-05-05 09:14 4.26537 -54.04409 32721 ft 438 kts 316°
2026-05-05 09:14 4.28721 -54.06524 32209 ft 436 kts 316°
2026-05-05 09:14 4.30894 -54.08635 31688 ft 434 kts 316°
2026-05-05 09:14 4.33051 -54.10733 31176 ft 431 kts 316°
2026-05-05 09:15 4.35200 -54.12820 30672 ft 429 kts 316°
2026-05-05 09:15 4.37338 -54.14893 30180 ft 426 kts 316°
2026-05-05 09:15 4.39463 -54.16954 29640 ft 424 kts 316°
2026-05-05 09:15 4.41570 -54.18994 29166 ft 419 kts 316°
2026-05-05 09:16 4.43657 -54.21015 28703 ft 415 kts 316°
2026-05-05 09:16 4.45723 -54.23021 28233 ft 412 kts 315°
2026-05-05 09:16 4.47772 -54.25008 27791 ft 409 kts 315°
2026-05-05 09:16 4.49808 -54.26982 27346 ft 406 kts 315°
2026-05-05 09:17 4.51831 -54.28943 26906 ft 404 kts 315°
2026-05-05 09:17 4.53824 -54.30874 26464 ft 402 kts 315°
2026-05-05 09:17 4.55835 -54.32821 26017 ft 401 kts 315°
2026-05-05 09:17 4.57835 -54.34762 25569 ft 399 kts 315°
2026-05-05 09:18 4.59828 -54.36697 25093 ft 399 kts 315°
2026-05-05 09:18 4.61818 -54.38629 24625 ft 398 kts 315°
2026-05-05 09:18 4.63805 -54.40557 24144 ft 398 kts 315°
2026-05-05 09:18 4.65791 -54.42483 23660 ft 398 kts 315°
2026-05-05 09:19 4.67750 -54.44447 23089 ft 398 kts 313°
2026-05-05 09:19 4.69615 -54.46485 22582 ft 396 kts 310°
2026-05-05 09:19 4.71414 -54.48566 22075 ft 395 kts 310°
2026-05-05 09:19 4.72592 -54.49962 21734 ft 394 kts 310°
2026-05-05 09:20 4.74354 -54.52059 21230 ft 393 kts 310°
2026-05-05 09:20 4.76122 -54.54146 20731 ft 392 kts 311°
2026-05-05 09:20 4.77898 -54.56213 20235 ft 391 kts 311°
2026-05-05 09:20 4.79682 -54.58268 19741 ft 390 kts 312°
2026-05-05 09:21 4.81469 -54.60314 19251 ft 390 kts 312°
2026-05-05 09:21 4.83252 -54.62354 18800 ft 389 kts 313°
2026-05-05 09:21 4.85028 -54.64386 18312 ft 388 kts 313°
2026-05-05 09:21 4.86797 -54.66407 17960 ft 382 kts 313°
2026-05-05 09:22 4.88547 -54.68410 17454 ft 381 kts 313°
2026-05-05 09:22 4.90291 -54.70408 16991 ft 379 kts 313°
2026-05-05 09:22 4.92022 -54.72394 16548 ft 377 kts 313°
2026-05-05 09:22 4.93733 -54.74360 15955 ft 372 kts 313°
2026-05-05 09:23 4.95418 -54.76296 15425 ft 364 kts 313°
2026-05-05 09:23 4.97064 -54.78186 14988 ft 355 kts 313°
2026-05-05 09:23 4.98670 -54.80027 14559 ft 346 kts 313°
2026-05-05 09:23 5.00237 -54.81826 14148 ft 339 kts 313°
2026-05-05 09:24 5.01769 -54.83585 13722 ft 332 kts 313°
2026-05-05 09:24 5.03273 -54.85309 13287 ft 325 kts 313°
2026-05-05 09:24 5.04741 -54.86992 12882 ft 317 kts 313°
2026-05-05 09:24 5.06176 -54.88636 12488 ft 310 kts 313°
2026-05-05 09:25 5.07584 -54.90251 12100 ft 307 kts 313°
2026-05-05 09:25 5.08969 -54.91838 11713 ft 305 kts 313°
2026-05-05 09:25 5.10379 -54.93452 11302 ft 303 kts 313°
2026-05-05 09:25 5.11752 -54.95029 10928 ft 299 kts 313°
2026-05-05 09:26 5.13114 -54.96596 10701 ft 295 kts 313°
2026-05-05 09:26 5.14450 -54.98134 10462 ft 291 kts 314°
2026-05-05 09:26 5.15773 -54.99656 10244 ft 288 kts 314°
2026-05-05 09:26 5.17094 -55.01173 10196 ft 288 kts 314°
2026-05-05 09:27 5.18426 -55.02700 9872 ft 294 kts 313°
2026-05-05 09:27 5.19760 -55.04230 9436 ft 288 kts 313°
2026-05-05 09:27 5.21069 -55.05733 9006 ft 284 kts 313°
2026-05-05 09:27 5.22362 -55.07218 8577 ft 281 kts 313°
2026-05-05 09:28 5.23643 -55.08688 8161 ft 279 kts 313°
2026-05-05 09:28 5.24914 -55.10147 7751 ft 276 kts 313°
2026-05-05 09:28 5.26175 -55.11597 7349 ft 277 kts 313°
2026-05-05 09:28 5.27443 -55.13053 6949 ft 277 kts 313°
2026-05-05 09:29 5.28712 -55.14511 6548 ft 278 kts 313°
2026-05-05 09:29 5.29983 -55.15972 6138 ft 278 kts 313°
2026-05-05 09:29 5.31255 -55.17431 5713 ft 277 kts 313°
2026-05-05 09:29 5.32488 -55.18848 5299 ft 269 kts 313°
2026-05-05 09:30 5.33699 -55.20240 4885 ft 261 kts 313°
2026-05-05 09:30 5.34893 -55.21613 4463 ft 254 kts 313°
2026-05-05 09:30 5.36041 -55.22936 4050 ft 249 kts 313°
2026-05-05 09:30 5.37151 -55.24216 3644 ft 244 kts 314°
2026-05-05 09:31 5.38255 -55.25488 3235 ft 240 kts 314°
2026-05-05 09:31 5.39343 -55.26740 2824 ft 236 kts 314°
2026-05-05 09:31 5.40420 -55.27976 2411 ft 234 kts 314°
2026-05-05 09:31 5.41508 -55.29147 2162 ft 220 kts 326°
2026-05-05 09:32 5.42817 -55.29644 2077 ft 189 kts
2026-05-05 09:32 5.43995 -55.29383 2013 ft 164 kts 32°
2026-05-05 09:32 5.44791 -55.28687 2006 ft 142 kts 56°
2026-05-05 09:32 5.45183 -55.27817 1823 ft 134 kts 78°
2026-05-05 09:33 5.45232 -55.26898 1479 ft 132 kts 88°
2026-05-05 09:33 5.45239 -55.25984 1211 ft 128 kts 89°
2026-05-05 09:33 5.45235 -55.25079 1016 ft 130 kts 90°
2026-05-05 09:33 5.45245 -55.24175 787 ft 130 kts 89°
2026-05-05 09:34 5.45273 -55.23263 576 ft 131 kts 89°
2026-05-05 09:34 5.45268 -55.22333 453 ft 134 kts 90°
2026-05-05 09:34 5.45276 -55.21389 294 ft 135 kts 89°
2026-05-05 09:34 5.45284 -55.20442 93 ft 135 kts 91°
2026-05-05 09:35 5.45286 -55.19589 61 ft 93 kts 90°
2026-05-05 09:35 5.45290 -55.19164 57 ft 5 kts 26°
2026-05-05 09:35 5.45290 -55.19188 57 ft 5 kts 263°
2026-05-05 09:36 5.45287 -55.19255 60 ft 13 kts 269°
2026-05-05 09:36 5.45287 -55.19345 61 ft 13 kts 270°
2026-05-05 09:36 5.45288 -55.19436 59 ft 13 kts 270°
2026-05-05 09:36 5.45287 -55.19529 60 ft 14 kts 270°
2026-05-05 09:37 5.45287 -55.19630 61 ft 15 kts 270°
2026-05-05 09:37 5.45322 -55.19726 61 ft 16 kts 330°
2026-05-05 09:37 5.45430 -55.19747 54 ft 16 kts 328°
2026-05-05 09:37 5.45455 -55.19848 59 ft 13 kts 271°
2026-05-05 09:38 5.45523 -55.19879 57 ft 12 kts 339°
2026-05-05 09:38 5.45501 -55.19921 57 ft 2 kts 184°